EDT,Max TemperatureF,Mean TemperatureF,Min TemperatureF,Max Dew PointF,MeanDew PointF,Min DewpointF,Max Humidity, Mean Humidity, Min Humidity, Max Sea Level PressureIn, Mean Sea Level PressureIn, Min Sea Level PressureIn, Max VisibilityMiles, Mean VisibilityMiles, Min VisibilityMiles, Max Wind SpeedMPH, Mean Wind SpeedMPH, Max Gust SpeedMPH,PrecipitationIn, CloudCover, Events, WindDirDegrees
2012-8-1,81,70,59,60,55,41,90,61,24,29.98,29.94,29.89,10,10,5,9,2,,0.00,0,,321
2012-8-2,88,75,62,67,59,53,75,57,37,29.93,29.89,29.86,10,10,10,10,2,9,0.00,1,,238
2012-8-3,93,80,68,68,59,48,88,53,22,29.97,29.94,29.91,10,10,7,10,2,,0.00,1,,128
2012-8-4,90,80,69,72,65,60,85,61,40,29.99,29.93,29.81,10,9,5,17,6,23,0.00,2,Rain,163
2012-8-5,86,75,62,68,56,43,83,55,25,30.14,29.96,29.85,10,10,5,20,10,28,0.00,4,,275
2012-8-6,84,68,51,52,44,32,88,46,15,30.20,30.12,30.03,10,10,10,9,3,9,0.00,0,,250
2012-8-7,89,72,55,59,50,42,82,48,20,30.03,29.97,29.92,10,10,10,13,4,18,0.00,1,,258
2012-8-8,84,74,65,62,53,43,86,52,24,30.01,29.98,29.96,10,10,10,9,2,18,0.00,1,Rain,5
2012-8-9,69,65,61,62,60,54,91,85,59,29.99,29.93,29.82,10,8,1,9,3,,0.00,8,Rain,50
2012-8-10,67,63,59,63,59,56,93,89,79,29.83,29.71,29.66,10,6,2,16,5,23,0.00,8,Rain,345
2012-8-11,70,64,58,59,57,55,90,82,60,29.95,29.83,29.72,10,6,1,14,9,20,0.00,8,Rain,308
2012-8-12,78,67,56,57,54,48,91,64,34,30.02,29.99,29.95,10,10,10,10,5,,0.00,2,,277
2012-8-13,72,67,62,62,58,54,90,74,53,30.02,30.00,29.97,10,10,5,7,1,,0.00,5,Rain,232
2012-8-14,76,68,61,62,57,51,91,72,43,29.97,29.93,29.89,10,8,2,8,1,,0.00,5,Rain,345
2012-8-15,80,68,57,62,55,48,90,64,34,29.98,29.95,29.92,10,9,4,5,1,,0.00,1,,292
2012-8-16,78,70,63,62,60,56,88,70,48,29.97,29.88,29.77,10,10,5,18,5,24,0.00,3,Rain,214
2012-8-17,74,66,56,62,52,44,92,66,34,30.00,29.92,29.84,10,9,4,13,7,18,0.00,2,Rain,293
2012-8-18,74,60,47,50,44,36,90,56,27,30.05,30.00,29.96,10,10,10,6,2,,0.00,0,,284
2012-8-19,76,64,52,52,47,36,89,61,23,29.99,29.95,29.91,10,10,10,7,1,16,0.00,1,,334
2012-8-20,74,63,52,55,47,40,91,60,30,30.00,29.97,29.94,10,9,1,7,1,,0.00,1,,2
2012-8-21,77,64,51,54,47,37,90,57,25,30.11,30.06,30.00,10,10,10,9,1,21,0.00,1,,339
2012-8-22,80,66,52,54,49,41,90,56,24,30.17,30.12,30.09,10,9,2,9,2,23,0.00,0,,233
2012-8-23,86,70,54,56,50,43,88,55,22,30.17,30.12,30.09,10,10,10,8,1,,0.00,0,,202
2012-8-24,88,74,60,57,52,41,82,52,19,30.15,30.10,30.06,10,10,10,9,4,,0.00,0,,161
2012-8-25,92,78,63,63,53,39,89,48,16,30.14,30.11,30.08,10,9,2,13,4,17,0.00,0,,156
2012-8-26,91,78,64,66,57,48,86,53,23,30.15,30.09,30.01,10,10,7,16,6,21,0.00,2,Rain,157
2012-8-27,84,76,68,68,62,46,91,68,28,30.05,30.01,29.97,10,8,2,12,2,17,0.00,4,Rain,320
2012-8-28,79,68,57,55,52,46,84,58,31,30.13,30.09,30.04,10,10,10,14,4,21,0.00,1,,338
2012-8-29,79,66,53,57,51,43,92,64,27,30.15,30.10,30.05,10,9,1,6,1,,0.00,1,,320
2012-8-30,85,70,56,57,52,45,91,56,24,30.12,30.06,30.00,10,9,4,13,4,21,0.00,0,,202
2012-8-31,95,80,66,60,53,48,60,42,21,30.07,30.03,30.00,10,10,10,22,8,28,0.00,0,,253